Weather History for KSUU - January, 2013

Change the Weather History Date:

Wednesday, January 2, 2013

  Actual Average Record
Temperature  
Mean Temperature 40 °F -  
Max Temperature 52 °F 53 °F 67 °F (2014)
Min Temperature 27 °F 37 °F 24 °F (2001)
Degree Days  
Heating Degree Days 26    
Moisture  
Dew Point 32 °F    
Average Humidity 83    
Maximum Humidity 99    
Minimum Humidity 48    
Precipitation  
Precipitation 0.00 in - - ()
Sea Level Pressure  
Sea Level Pressure 30.23 in    
Wind  
Wind Speed 6 mph (ENE)    
Max Wind Speed 12 mph    
Max Gust Speed -    
Visibility 10 miles    
Events      
Averages and records for this station are not official NWS values.
T = Trace of Precipitation, MM = Missing Value Source: NWS Daily Summary

Daily Weather History Graph

Daily Weather History Graph

Search for Another Location

Airport or City:

Trip Planner

Search our weather history database for the weather conditions in past years. The results will help you decide how hot, cold, wet, or windy it might be!

Date:

Astronomy

Jan. 02, 2013 Rise Set
Actual Time 7:24 AM PST 4:59 PM PST
Civil Twilight 6:55 AM PST 5:28 PM PST
Nautical Twilight 6:22 AM PST 6:01 PM PST
Astronomical Twilight 5:50 AM PST 6:34 PM PST
Moon 10:32 PM PST 10:13 AM PST
Length of Visible Light 10h 33m
Length of Day
9h 34m
Waning Gibbous, 74% of the Moon is Illuminated
Jan 2
Waning Gibbous
Jan 4
Last Quarter
Jan 11
New
Jan 18
First Quarter
Jan 26
Full

Hourly Weather History & Observations

Time (PST) Temp. Windchill Dew Point Humidity Pressure Visibility Wind Dir Wind Speed Gust Speed Precip Events Conditions
12:58 AM 32.0 °F 24.2 °F 31.3 °F 97% 30.27 in 10.0 mi NE 9.2 mph - N/A   Clear
1:58 AM 31.5 °F 24.9 °F 30.2 °F 95% 30.27 in 10.0 mi ENE 6.9 mph - N/A   Clear
2:58 AM 28.9 °F 22.8 °F 28.8 °F 99% 30.27 in 10.0 mi NE 5.8 mph - N/A   Clear
3:58 AM 28.9 °F 22.8 °F 28.6 °F 99% 30.25 in 10.0 mi East 5.8 mph - N/A   Clear
4:58 AM 29.1 °F 24.1 °F 28.6 °F 98% 30.25 in 10.0 mi East 4.6 mph - N/A   Clear
5:58 AM 27.3 °F 20.9 °F 27.1 °F 99% 30.25 in 10.0 mi East 5.8 mph - N/A   Clear
6:58 AM 28.2 °F 22.0 °F 27.7 °F 98% 30.25 in 10.0 mi East 5.8 mph - N/A   Clear
7:58 AM 31.5 °F - 29.8 °F 94% 30.25 in 10.0 mi ENE 2.3 mph - N/A   Clear
8:58 AM 37.6 °F - 31.8 °F 80% 30.27 in 10.0 mi NE 1.2 mph - N/A   Clear
9:58 AM 41.9 °F 36.9 °F 33.1 °F 71% 30.28 in 10.0 mi NE 8.1 mph - N/A   Clear
10:58 AM 45.3 °F 39.7 °F 33.6 °F 64% 30.28 in 10.0 mi NE 11.5 mph - N/A   Clear
11:58 AM 47.8 °F - 35.6 °F 63% 30.25 in 10.0 mi NE 11.5 mph - N/A   Clear
12:58 PM 50.4 °F - 34.0 °F 53% 30.23 in 10.0 mi ENE 10.4 mph - N/A   Clear
1:58 PM 52.3 °F - 33.3 °F 48% 30.22 in 10.0 mi NE 10.4 mph - N/A   Clear
2:58 PM 52.9 °F - 33.6 °F 48% 30.19 in 10.0 mi ENE 9.2 mph - N/A   Clear
3:58 PM 52.2 °F - 33.8 °F 50% 30.19 in 10.0 mi East 6.9 mph - N/A   Clear
4:58 PM 46.6 °F - 38.7 °F 74% 30.19 in 10.0 mi East 4.6 mph - N/A   Clear
5:58 PM 37.8 °F 35.3 °F 37.4 °F 99% 30.19 in 10.0 mi East 3.5 mph - N/A   Clear
6:58 PM 35.6 °F 30.7 °F 35.4 °F 99% 30.17 in 9.0 mi ENE 5.8 mph - N/A   Clear
7:58 PM 33.1 °F - 32.9 °F 99% 30.19 in 10.0 mi NE 2.3 mph - N/A   Clear
8:58 PM 34.3 °F - 31.1 °F 88% 30.19 in 10.0 mi Calm Calm - N/A   Clear
9:58 PM 32.2 °F - 29.5 °F 90% 30.20 in 10.0 mi Calm Calm - N/A   Clear
10:58 PM 30.9 °F - 28.9 °F 92% 30.20 in 7.0 mi NW 2.3 mph - N/A   Clear
11:58 PM 30.6 °F - 28.6 °F 92% 30.20 in 10.0 mi Calm Calm - N/A   Clear